Theta_e
295 296 296 296 297 297 294 295 294 294 293 296 295 294 293 293 293 293 292 292 293 295 294 294 294 295 295 295 293 293 294 294 299 300 298 299 303 309 310 312 311 311 309 309
295 294 295 295 295 296 295 295 294 294 293 293 293 293 292 292 292 292 292 292 292 292 291 291 292 292 293 293 293 293 293 296 295 293 297 300 298 299 299 299 304 312 312 311
296 295 295 294 294 295 295 295 295 294 294 294 293 293 292 292 293 292 292 291 291 291 291 292 292 291 292 293 292 293 293 293 294 294 293 293 295 295 294 296 297 300 299 305
295 294 294 294 294 294 295 296 295 294 293 293 292 292 292 292 292 292 291 291 291 291 291 291 290 291 291 291 292 292 292 290 292 292 292 292 292 291 291 292 294 296 296 298
294 294 294 294 294 294 294 295 295 294 293 293 293 293 292 292 292 292 292 292 292 291 291 291 290 291 291 290 291 291 291 291 293 293 292 291 291 291 291 291 292 292 293 294
294 293 293 294 294 294 293 292 292 293 293 293 294 292 292 292 292 292 292 292 291 291 292 292 292 291 291 290 291 291 291 291 291 291 291 291 292 291 291 291 292 292 292 292
293 293 293 293 293 294 293 293 292 294 293 293 292 293 292 291 290 291 291 291 291 291 292 291 291 290 291 291 291 291 291 291 292 293 292 293 291 291 292 292 292 292 293 292
293 292 293 293 293 293 293 293 292 294 293 292 291 291 291 291 291 291 291 292 292 292 292 290 290 291 290 291 291 291 292 293 294 294 293 292 292 290 289 289 292 293 294 294
292 291 292 293 293 293 293 293 293 292 291 291 291 291 292 291 291 291 291 293 292 292 292 291 290 291 292 291 290 291 292 292 293 293 293 293 289 286 286 288 293 293 289 289
292 292 293 294 294 293 293 293 292 292 292 291 291 292 292 291 291 291 292 291 292 292 291 292 292 291 291 290 291 287 289 285 287 289 289 289 285 285 286 290 290 285 286 286
293 293 294 294 293 293 293 292 292 291 292 291 291 289 287 288 288 289 289 291 293 291 292 293 292 290 290 288 286 285 284 283 286 285 286 290 284 285 285 285 285 285 285 286
293 293 293 293 293 293 293 292 291 291 291 291 289 289 288 288 288 288 288 290 290 292 292 292 290 291 287 287 284 284 283 284 282 283 284 284 284 284 284 285 285 285 286 286
293 293 293 293 293 293 292 291 290 291 292 291 291 288 287 286 286 286 287 288 290 291 292 292 292 286 285 285 283 282 282 283 283 282 284 283 282 283 283 286 294 293 289 288
293 293 293 293 293 292 291 290 290 290 290 289 289 288 287 285 286 287 288 287 288 287 288 287 287 285 286 284 284 282 282 282 282 282 282 282 283 283 282 285 287 291 294 293
292 292 292 293 290 291 291 290 290 290 290 289 291 288 287 285 285 286 286 287 286 287 285 284 284 285 284 284 282 282 281 281 281 282 281 282 282 282 282 283 285 286 287 288
292 292 292 288 288 291 291 292 290 288 289 289 291 288 287 287 285 285 285 285 285 285 284 284 283 282 283 282 282 281 281 281 281 281 281 281 281 281 281 282 282 283 284 285
292 291 290 287 287 287 289 289 288 287 290 289 288 288 287 287 288 286 285 284 284 283 282 282 281 282 283 281 281 281 280 280 281 281 281 281 281 281 281 281 281 282 282 283
290 287 289 287 288 290 290 286 285 289 289 288 283 285 288 286 287 286 287 284 283 283 281 281 282 282 281 280 280 280 280 280 280 280 281 281 280 280 280 280 281 281 281 281
287 287 288 289 288 288 286 285 286 286 288 283 285 284 286 285 288 288 288 286 284 284 282 282 282 281 279 279 279 279 279 278 278 279 279 280 280 280 280 280 280 280 280 281
287 289 290 290 288 285 286 287 288 285 285 284 284 284 285 285 286 290 289 286 285 282 283 284 281 281 280 278 278 278 278 278 278 278 278 279 279 279 280 280 280 280 280 280
288 289 289 286 286 287 287 283 282 283 280 282 281 282 283 285 285 287 286 284 285 281 283 282 281 280 278 278 278 278 278 277 277 277 278 278 278 278 278 279 279 279 279 279
286 286 286 286 285 284 281 281 282 282 282 282 281 281 282 284 285 287 284 283 281 280 283 281 281 280 277 277 277 277 277 277 277 277 277 277 277 277 277 277 278 278 279 278
286 286 283 283 283 280 279 279 279 279 281 281 281 280 282 284 285 284 282 280 279 281 275 278 279 277 276 276 278 277 277 276 276 276 276 276 276 276 276 276 277 277 277 277
284 281 279 281 278 280 281 281 280 280 279 281 280 280 281 283 283 283 278 279 280 276 276 280 278 273 273 276 277 277 276 276 275 275 275 275 275 276 275 275 276 276 276 276
280 280 279 279 282 281 280 279 280 281 279 280 279 281 280 281 279 282 279 276 278 278 279 277 274 274 272 276 277 276 275 275 274 275 274 274 274 275 275 275 275 275 275 275
280 280 280 282 280 279 278 278 278 279 278 279 280 279 276 277 279 276 276 276 276 277 277 278 277 277 275 276 276 276 275 275 274 274 274 274 274 274 274 274 274 274 274 275
279 279 282 281 279 279 278 278 278 279 279 278 277 273 276 274 273 275 276 276 276 274 277 278 278 277 276 276 275 275 274 274 274 274 273 273 273 274 274 273 273 273 274 275
Wind_Speed
27 29 30 31 30 30 26 9 5 24 30 3 3 5 5 9 10 10 6 7 7 7 10 7 6 6 11 6 10 7 6 4 5 11 23 17 8 10 8 7 9 11 12 10
27 27 28 29 30 29 21 7 7 8 17 5 6 8 12 4 7 7 7 5 7 10 10 5 6 10 10 10 10 5 6 2 7 13 5 8 7 12 13 12 4 8 8 9
26 26 28 27 27 26 18 4 4 4 3 2 3 6 9 9 6 5 6 8 9 9 9 9 5 11 8 10 10 11 8 3 8 9 14 16 18 19 14 6 4 11 10 16
26 26 27 26 25 25 13 2 3 3 4 6 9 8 9 12 12 11 10 8 12 13 7 11 13 14 12 10 13 9 4 7 13 14 15 14 20 23 23 16 14 11 22 21
28 27 26 25 26 24 6 4 4 4 7 8 9 9 9 12 11 10 10 12 14 12 12 12 12 12 10 9 10 11 9 9 13 16 16 17 21 23 26 22 19 21 23 27
26 26 26 24 23 18 4 4 3 3 7 6 5 6 11 14 13 8 10 14 13 12 13 12 11 12 13 14 13 13 10 8 11 15 19 15 16 22 25 25 20 16 19 24
27 25 24 22 22 18 10 7 4 2 5 7 10 12 13 12 14 14 12 11 11 9 5 9 10 11 15 17 17 12 15 13 10 12 14 14 15 17 17 21 26 19 20 20
24 24 24 22 21 18 16 11 1 2 3 9 11 15 13 14 11 10 12 10 9 4 3 3 4 4 7 11 11 10 2 3 4 4 9 15 12 9 11 12 21 21 15 19
23 24 22 25 22 21 19 17 5 2 3 3 11 13 10 9 6 6 6 9 4 3 1 2 2 3 3 3 5 4 2 4 3 5 10 14 7 21 22 16 14 9 15 18
24 23 24 26 22 21 19 11 5 2 2 3 6 3 7 6 6 3 5 11 3 1 1 2 2 2 3 3 6 8 6 5 3 9 6 8 19 26 16 7 8 29 25 23
25 25 26 24 22 21 17 9 8 2 2 4 8 5 4 4 4 4 7 7 5 2 1 2 2 2 4 6 9 6 5 5 5 6 5 6 32 30 15 18 36 32 34 27
27 26 25 23 20 16 10 4 9 4 2 2 13 17 13 7 5 4 3 4 5 3 2 2 2 5 5 7 4 8 4 5 5 3 7 24 21 23 27 30 34 40 26 29
28 26 24 19 14 10 7 6 12 6 1 1 5 7 17 19 14 10 4 3 4 2 4 2 4 8 5 5 4 5 7 5 3 9 6 19 24 21 24 29 21 8 14 18
28 25 20 15 10 8 6 6 11 9 3 1 4 9 24 24 26 17 13 15 9 6 2 4 4 4 4 6 3 6 6 10 10 7 9 22 15 25 29 28 32 24 11 4
27 24 15 10 9 6 5 5 8 16 2 2 2 6 25 27 27 28 26 18 5 4 4 4 3 3 3 2 3 4 8 7 8 4 20 11 19 20 27 28 28 26 25 24
25 20 10 9 10 8 2 2 2 19 10 1 2 1 11 19 26 27 22 22 10 5 3 3 3 5 4 3 3 12 16 15 11 7 17 13 17 18 26 25 26 26 27 23
23 14 3 6 9 14 8 3 10 14 3 2 2 2 4 9 9 14 13 18 5 4 2 5 3 3 3 3 5 15 16 18 14 18 14 20 21 17 22 24 30 36 36 33
19 7 2 3 9 8 4 12 15 6 3 6 3 3 2 8 3 3 3 4 4 7 3 3 3 2 3 4 12 13 15 16 13 19 15 12 16 21 23 30 29 23 22 20
11 2 4 3 4 4 5 5 12 15 9 3 3 4 3 7 2 2 2 2 3 0 4 3 4 3 5 7 11 12 12 11 15 17 16 16 18 18 18 18 21 20 18 18
4 4 1 2 4 7 4 3 3 4 6 3 2 3 3 3 3 2 1 2 1 2 1 2 3 3 3 5 6 8 10 11 12 14 16 17 17 15 16 17 18 18 18 23
5 6 2 5 6 3 5 3 4 3 4 3 3 4 5 3 2 3 2 1 1 2 2 3 2 2 4 8 8 11 15 17 17 16 16 19 16 14 15 15 21 21 22 22
4 2 4 5 7 4 6 3 4 4 1 3 4 5 3 2 3 2 3 2 3 1 1 3 2 1 3 7 8 10 17 18 18 20 19 21 21 21 19 19 20 21 20 20
5 4 4 4 4 10 6 6 4 4 3 4 6 5 2 3 1 2 3 4 0 0 3 2 1 2 3 5 7 8 15 17 17 17 19 20 20 21 20 19 20 21 20 21
4 4 7 4 4 3 3 2 2 3 3 6 6 3 1 2 3 2 4 3 2 3 2 1 1 3 4 5 9 10 12 16 17 18 19 19 18 17 18 19 19 20 19 19
4 4 4 3 0 1 1 2 2 2 2 3 3 3 1 3 3 2 3 5 2 2 2 1 3 3 3 6 8 11 12 15 15 16 16 17 18 17 17 18 18 18 17 16
4 6 3 3 2 3 2 2 2 4 3 1 1 2 3 3 2 5 3 2 1 2 1 3 3 5 5 6 10 14 16 18 19 17 18 18 16 16 19 17 17 19 18 15
4 2 1 1 2 2 2 3 3 11 2 1 1 4 2 2 3 2 2 0 1 2 3 3 5 5 7 12 14 14 16 17 18 18 19 19 20 20 19 14 17 20 20 16
Wind_Direction
352 356 358 358 354 351 352 309 324 352 343 315 4 32 352 346 346 4 339 321 321 352 342 325 325 299 324 341 353 356 30 304 293 302 304 315 324 338 267 255 232 221 239 254
353 353 351 350 355 357 346 319 294 13 341 24 4 352 337 7 334 347 337 327 334 336 317 305 313 356 323 337 346 350 350 350 324 323 237 274 37 342 348 336 312 251 261 253
351 352 351 352 350 350 346 299 327 8 313 135 355 349 320 328 313 311 331 314 310 309 316 330 272 300 313 340 314 292 321 215 252 263 288 303 302 305 308 314 298 324 290 294
350 349 349 351 348 348 338 333 10 27 312 333 324 319 303 308 317 329 330 320 315 320 322 312 302 314 322 307 291 308 280 256 266 260 277 290 297 298 298 288 266 257 280 292
344 346 347 349 349 349 337 342 355 350 292 284 296 303 313 311 322 327 303 313 316 313 301 284 298 310 304 292 312 298 290 284 270 276 280 277 280 283 286 275 266 261 263 269
346 346 349 350 351 2 348 352 283 252 285 307 333 324 328 317 317 302 301 299 301 287 283 298 277 287 284 278 274 275 274 272 273 275 267 280 276 260 261 276 265 258 259 262
347 348 346 347 347 356 345 323 286 327 293 325 326 352 312 315 315 310 313 313 301 293 265 287 281 268 265 269 269 248 263 261 261 261 281 261 248 261 266 267 271 263 260 273
348 350 353 352 348 347 339 324 230 298 299 319 323 333 338 324 313 312 313 328 328 346 312 308 294 262 262 255 265 251 266 327 239 252 263 271 292 30 349 321 294 289 276 273
350 350 345 341 340 340 334 324 307 228 305 325 339 328 315 315 326 314 335 346 320 245 292 249 245 307 317 317 342 307 320 205 233 299 288 292 55 357 336 311 271 288 7 336
348 345 337 339 343 340 339 321 345 178 273 309 12 359 349 349 340 292 311 341 307 223 264 266 297 325 340 353 18 357 357 352 298 321 303 271 14 353 326 263 300 319 311 302
345 341 339 341 342 340 342 336 17 182 260 315 50 61 35 337 7 342 320 321 51 327 266 332 345 340 4 79 63 349 37 307 348 335 296 305 350 336 336 298 289 282 287 283
345 342 342 341 341 343 351 8 -0 348 247 322 111 69 28 1 346 302 298 270 301 274 309 13 311 48 12 14 24 16 18 351 313 278 313 307 309 307 297 290 276 272 257 261
346 344 344 347 353 353 18 62 20 342 259 339 74 23 14 6 345 308 261 256 340 315 43 7 41 70 19 20 48 338 340 349 299 307 345 323 314 315 319 323 330 296 236 242
346 345 348 353 357 18 62 91 29 23 318 300 93 53 32 15 9 2 259 244 276 324 355 60 46 87 21 36 68 29 343 318 321 294 316 318 333 340 339 347 18 24 46 98
344 344 349 3 14 34 95 65 50 18 37 329 86 71 32 26 27 36 49 66 66 54 44 47 45 43 48 53 43 12 350 340 350 334 335 330 331 338 350 8 18 26 39 45
341 340 346 8 21 38 133 158 34 360 357 310 56 196 57 22 40 40 37 51 58 62 64 73 40 354 78 38 27 357 353 347 354 340 334 343 345 354 7 16 18 26 35 36
339 339 352 32 44 56 58 62 316 348 25 356 49 35 66 359 14 45 47 49 50 55 63 54 63 15 65 62 24 347 350 343 343 349 345 2 1 3 5 16 17 27 33 33
342 346 124 56 52 62 64 10 18 37 39 51 50 319 6 14 336 4 37 52 28 24 53 26 39 24 45 45 351 349 349 339 343 349 356 354 350 7 11 16 19 27 29 25
353 74 115 49 38 36 330 25 42 42 49 80 51 349 344 4 282 262 316 81 51 185 61 35 52 26 43 337 339 348 349 353 337 342 352 357 7 6 11 13 18 22 21 23
49 44 293 43 355 342 21 43 31 23 29 27 39 10 322 317 319 333 71 57 90 75 289 103 71 87 165 5 336 336 344 346 348 355 359 358 4 4 8 14 14 20 19 23
41 28 40 334 28 27 34 42 47 340 40 2 330 24 331 0 315 323 22 54 47 74 297 97 55 33 342 344 341 347 352 354 357 359 358 1 4 2 2 7 10 14 19 18
33 54 32 12 24 24 68 13 6 42 33 356 344 330 302 297 303 314 335 84 39 81 296 60 62 69 320 339 333 346 354 354 355 359 358 359 5 3 4 4 5 7 12 13
40 53 45 39 346 39 50 1 329 346 3 7 345 326 307 301 301 315 33 60 351 348 43 117 102 287 332 324 331 343 348 351 354 354 357 355 357 2 4 359 2 4 8 8
59 54 28 63 14 33 24 331 312 309 326 334 318 286 319 291 334 329 66 260 42 37 53 88 358 295 291 314 332 342 341 346 344 343 343 346 348 353 355 357 357 359 358 359
59 48 46 54 32 170 299 246 264 285 334 323 313 285 208 323 32 12 18 18 47 43 28 336 282 300 293 320 340 335 335 337 335 334 335 336 341 343 343 343 351 355 347 356
61 40 41 347 44 333 348 323 294 9 313 259 220 274 34 12 5 39 347 48 19 307 322 296 326 329 318 323 332 328 331 331 328 327 331 332 334 330 329 335 348 349 342 346
49 37 39 343 236 282 304 342 337 327 298 355 356 55 248 314 36 25 9 87 269 283 303 309 319 321 314 321 324 326 321 322 319 323 326 321 321 325 326 337 340 341 336 344